OpenBCM V1.08-5-g2f4a (Linux)

Packet Radio Mailbox

IZ3LSV

[San Dona' di P. JN]

 Login: GUEST





  
I0OJJ  > KEPS     14.06.25 02:00l 343 Lines 16342 Bytes #39 (0) @ AMSAT
BID : ORB25165.1
Read: GUEST
Subj: 2Line Orbital Elements 25165.AMSAT
Path: IZ3LSV<I3XTY<I0OJJ
Sent: 250614/0025z @:I0OJJ.ITA.EU [Rome] obcm1.08-10-g596e
From: I0OJJ @ I0OJJ.ITA.EU (Gustavo)
To:   KEPS @ AMSAT
X-Info: This message was generated automatically


QST de W1STR

AMSAT Orbital Elements for Amateur Satellites in TLE Format
From Orbital Analysis Office
New England Sci-Tech STEM Education Center
Natick, MA June 14, 2025
To all radio amateurs


These element sets describe the orbits of various satellites 
in use by the amateur radio community. For details see:
www.amsat.org/keplerian-elements-formats/

A daily update of element sets is available at:
www.amsat.org/tle/daily-bulletin.txt
or without bulletin text:
www.amsat.org/tle/dailytle.txt


AO-07
1 07530U 74089B   25164.74034115 -.00000044  00000-0  12316-4 0  9992
2 07530 101.9926 169.0486 0012581 113.4871  59.7940 12.53689627314585
UO-11
1 14781U 84021B   25164.83357995  .00001418  00000-0  15492-3 0  9991
2 14781  97.7544 131.1176 0007008 333.7754  26.3108 14.89402204223276
AO-27
1 22825U 93061C   25164.13390613  .00000110  00000-0  59002-4 0  9994
2 22825  98.7363 225.7071 0009551 101.6798 258.5456 14.30800700654220
FO-29
1 24278U 96046B   25164.67061071 -.00000022  00000-0  15947-4 0  9999
2 24278  98.5754  58.0239 0349448 332.1884  26.0949 13.53249307423579
NOAA-15
1 25338U 98030A   25164.80819192  .00000286  00000-0  13518-3 0  9994
2 25338  98.5344 189.8375 0009983 354.3253   5.7813 14.26982560409001
GO-32
1 25397U 98043D   25164.83653104  .00000074  00000-0  52201-4 0  9993
2 25397  98.9702 144.0443 0001398 149.7393 210.3866 14.24316336399112
ISS
1 25544U 98067A   25164.84662687  .00016414  00000-0  29311-3 0  9990
2 25544  51.6370 323.6326 0001522 240.1030 119.9808 15.50180386514642
NO-44
1 26931U 01043C   25163.57975719  .00000124  00000-0  77381-4 0  9993
2 26931  67.0498 120.0837 0006051 276.0706  83.9706 14.31735945237533
SO-50
1 27607U 02058C   25164.40000880  .00001454  00000-0  19800-3 0  9990
2 27607  64.5514 188.7437 0056826 333.1604  26.6563 14.81636372209790
CO-55
1 27844U 03031E   25164.54434117  .00000381  00000-0  18509-3 0  9997
2 27844  98.6752 172.7665 0009817 168.7483 191.3917 14.24000290139208
CO-57
1 27848U 03031J   25164.49459727  .00000313  00000-0  15724-3 0  9990
2 27848  98.6780 172.7201 0009340 186.0578 174.0489 14.23334307138926
RS-22
1 27939U 03042A   25164.82449781  .00001170  00000-0  19318-3 0  9994
2 27939  98.3283 334.3784 0011406   3.4197 103.5483 14.72366192161455
CO-58
1 28895U 05043F   25164.87150633  .00001654  00000-0  27762-3 0  9998
2 28895  98.2506 309.2752 0013266 295.4437  64.5396 14.71030194 47806
CO-65
1 32785U 08021C   25164.86191023  .00006735  00000-0  48527-3 0  9994
2 32785  97.7859 136.0560 0009420 188.8534 171.2526 15.04474846929798
CO-66
1 32791U 08021J   25164.19560473  .00021159  00000-0  10180-2 0  9996
2 32791  97.7273 144.3169 0005108 134.4616 225.7036 15.18799872931045
RS-30
1 32953U 08025A   25164.82835762  .00000044  00000-0  24192-3 0  9995
2 32953  82.5028 224.5355 0019888  40.2217 320.0330 12.43165227774063
NOAA-19
1 33591U 09005A   25164.80527817  .00000250  00000-0  15712-3 0  9997
2 33591  98.9971 229.5335 0013522 356.6503   3.4577 14.13376756842706
SRMSAT
1 37841U 11058D   25164.57431258  .00000443  00000-0  96730-4 0  9991
2 37841  19.9705 130.3740 0011973 108.7673  47.8960 14.11437776705891
ZACUBE-1
1 39417U 13066B   25164.59763299  .00006633  00000-0  57417-3 0  9993
2 39417  97.7802 121.5891 0045139  40.0412 320.4123 14.96688678625516
Delfi-N3xt
1 39428U 13066N   25164.72940840  .00012275  00000-0  12422-2 0  9994
2 39428  97.8354  82.3332 0084441 348.2776  11.6472 14.88455507619872
GOMX-1
1 39430U 13066Q   25164.84939705  .00002584  00000-0  40599-3 0  9997
2 39430  97.6827  23.2523 0132403 178.1367 182.0361 14.67654474616038
LO-74
1 39440U 13066AA  25164.30412130  .00004772  00000-0  48343-3 0  9993
2 39440  97.8500 108.8387 0062281 166.3438 193.9483 14.89960461621998
AO-73
1 39444U 13066AE  25164.40996350  .00011479  00000-0  85385-3 0  9998
2 39444  97.7840 126.3396 0042853  17.4411 342.8273 15.02394019624163
DTUSAT-2
1 40030U 14033W   25163.87361818  .00006420  00000-0  41780-3 0  9992
2 40030  98.0547 135.8508 0010515  55.1399 305.0815 15.08296682596892
EO-80
1 40032U 14033Y   25164.88876854  .00008829  00000-0  57132-3 0  9990
2 40032  98.0433 136.5644 0008335 358.2865   1.8332 15.08403580597544
LILACSAT-2
1 40908U 15049K   25164.83591850  .00017677  00000-0  45847-3 0  9996
2 40908  97.5047 185.2847 0010643 137.7660 222.4406 15.39012053538885
IO-86
1 40931U 15052B   25151.18580175  .00001241  00000-0  78118-4 0  9996
2 40931   6.0006  24.0987 0012733 338.8432  21.1169 14.78805930523047
Horyu-4
1 41340U 16012D   25164.89344536  .00033870  00000-0  89864-3 0  9991
2 41340  30.9961 102.9258 0005705 103.6460 256.4821 15.37069000513453
Lapan A3
1 41603U 16040E   25164.81743858  .00005041  00000-0  17652-3 0  9991
2 41603  97.1362 169.2585 0009124 250.8952 109.1301 15.29887271498430
CAS-2T
1 41847U 16066G   25164.49467150  .00001917  00000-0  27993-3 0  9998
2 41847  98.4201 238.9233 0346503 166.4856 194.5912 14.43493309451581
CAS-4B
1 42759U 17034B   25164.81143493  .00115950  00000-0  11727-2 0  9994
2 42759  43.0076 296.6534 0021444 317.9241  41.9977 15.63906672443267
CAS-4A
1 42761U 17034D   25164.77726420  .00108913  00000-0  10451-2 0  9993
2 42761  43.0113 293.9667 0022621 322.0659  37.8613 15.65217203443287
TechnoSat
1 42829U 17042E   25164.70835762  .00003110  00000-0  24293-3 0  9993
2 42829  97.3886 333.2262 0013738 259.5129 100.4548 15.01734868431344
AO-91
1 43017U 17073E   25164.58325134  .00013570  00000-0  68982-3 0  9994
2 43017  97.5252  35.2542 0173114 152.5971 208.4519 15.04783716409818
S-Net D
1 43186U 18014G   25164.13906584  .00008078  00000-0  47549-3 0  9995
2 43186  97.5627  67.0095 0008249 202.9412 157.1451 15.11865908402914
S-Net B
1 43187U 18014H   25164.47543903  .00007048  00000-0  41556-3 0  9993
2 43187  97.5631  67.3143 0009111 197.6491 162.4424 15.11846033402965
S-Net A
1 43188U 18014J   25164.20562141  .00008141  00000-0  47900-3 0  9994
2 43188  97.5641  67.1979 0008956 199.1626 160.9268 15.11871931402925
S-Net C
1 43189U 18014K   25164.47784363  .00007005  00000-0  41299-3 0  9999
2 43189  97.5653  67.4821 0010694 191.8837 168.2142 15.11841341401511
Ten-Koh
1 43677U 18084G   25164.46337549  .00003518  00000-0  28359-3 0  9994
2 43677  98.0862 336.8730 0005572 242.1016 117.9643 15.00597886360826
PO-101
1 43678U 18084H   25164.86260995  .00001744  00000-0  15171-3 0  9996
2 43678  98.1040 341.1510 0007074 277.0774  82.9642 14.98356955361027
QO-100
1 43700U 18090A   25164.82981578  .00000159  00000-0  00000+0 0  9992
2 43700   0.0188 334.1315 0002280 140.1319 112.6560  1.00269766 24222
MinXSS-2
1 43758U 18099A   25164.72417253  .00027532  00000-0  10728-2 0  9992
2 43758  97.5014 230.7720 0013110 137.5903 222.6350 15.25855164357603
AO-95
1 43770U 18099N   25164.14411241  .00008049  00000-0  40672-3 0  9997
2 43770  97.4909 222.1901 0010519 190.6149 169.4864 15.17286089357093
RANGE-A
1 43773U 18099R   25164.51269748  .00006029  00000-0  38330-3 0  9998
2 43773  97.4471 212.8005 0011693 169.8494 190.2973 15.09127545356810
MOVE-II
1 43780U 18099Y   25164.77913189  .00498676  00000-0  26509-2 0  9996
2 43780  97.4637 240.7372 0005606 197.1498 162.9581 15.79134428358463
SNUSat 2
1 43782U 18099AA  25164.70250558  .00011957  00000-0  64780-3 0  9992
2 43782  97.4586 219.4602 0013334 135.4450 224.7856 15.14678989357125
SnugLite
1 43784U 18099AC  25164.70109406  .00015622  00000-0  77819-3 0  9999
2 43784  97.4400 219.0272 0004905 129.9639 230.2026 15.17646663357265
ITASat 1
1 43786U 18099AE  25164.58022980  .00009635  00000-0  54808-3 0  9998
2 43786  97.4553 218.8387 0014293 186.0846 174.0214 15.12982185357064
EAGLET 1
1 43790U 18099AJ  25164.59522873  .00005599  00000-0  35658-3 0  9997
2 43790  97.4754 218.7975 0012486 168.1446 192.0079 15.09090184356673
ESEO
1 43792U 18099AL  25164.59710402  .00002048  00000-0  15773-3 0  9998
2 43792  97.4492 212.0082 0014166 143.3598 216.8599 15.02641928356426
CSIM
1 43793U 18099AM  25164.70758875  .00348986  00000-0  20633-2 0  9992
2 43793  97.4792 242.9160 0005207 179.9524 180.1743 15.77132546358293
JO-97
1 43803U 18099AX  25164.13735819  .00010156  00000-0  46172-3 0  9996
2 43803  97.4653 223.1814 0008999 127.5142 232.6913 15.20901438357310
Suomi 100
1 43804U 18099AY  25164.68469735  .00015889  00000-0  77123-3 0  9996
2 43804  97.4722 223.0086 0013849 130.1302 230.1148 15.18475035357326
ISAT
1 43879U 18111D   25164.48438189  .00031204  00000-0  10711-2 0  9998
2 43879  97.5961  78.9638 0008913 169.9658 190.1762 15.30049357354292
UWE-4
1 43880U 18111E   25164.73712316  .00022371  00000-0  86908-3 0  9992
2 43880  97.5906  77.6722 0011574 185.9747 174.1354 15.26019346352261
Sparrow
1 43881U 18111F   25164.72460066  .00033735  00000-0  11141-2 0  9996
2 43881  97.6109  82.1033 0005677 205.8862 154.2096 15.31307657352422
Prox-1
1 44339U 19036A   25164.86554741  .00017873  00000-0  22696-2 0  9993
2 44339  23.9984  33.6436 0007073 121.3756 238.7433 14.80052738318748
SONATE
1 44400U 19038Q   25164.65316731  .00602668  15855-3  13515-2 0  9995
2 44400  97.6811 192.2635 0008162 196.6365 163.4644 15.97697500330224
Taurus 1
1 44530U 19059C   25164.82190240  .00009846  00000-0  18072-2 0  9991
2 44530  98.6081 304.4156 0009298  31.8666 328.3097 14.65902555304563
Duchifat 3
1 44854U 19089C   25164.56217873  .00074871  00000-0  14342-2 0  9992
2 44854  36.9443 329.8718 0004646 339.4014  20.6555 15.46898767303569
TO-108
1 44881U 19093C   25164.87056031  .00001080  00000-0  13075-3 0  9993
2 44881  97.7924 240.4306 0012993 212.3423 147.6997 14.85611214296716
